Time,TemperatureF,DewpointF,PressureIn,WindDirection,WindDirectionDegrees,WindSpeedMPH,WindSpeedGustMPH,Humidity,HourlyPrecipIn,Conditions,Clouds,dailyrainin,SoftwareType,DateUTC
2013-05-25 00:21:00,72.0,45.0,29.73,North,0,0.0,-999.0,38,0.00,,,-99.99,,2013-05-25 07:21:00,
2013-05-25 00:31:00,72.0,45.0,29.73,North,0,0.0,-999.0,38,0.00,,,-99.99,,2013-05-25 07:31:00,
2013-05-25 00:42:00,72.0,45.0,29.73,North,0,0.0,-999.0,38,0.00,,,-99.99,,2013-05-25 07:42:00,
2013-05-25 00:52:00,72.0,45.0,29.73,North,0,0.0,-999.0,38,0.00,,,-99.99,,2013-05-25 07:52:00,
2013-05-25 01:22:00,70.0,48.0,29.72,North,0,0.0,-999.0,45,0.00,,,-99.99,,2013-05-25 08:22:00,
2013-05-25 01:32:00,70.0,48.0,29.72,North,0,0.0,-999.0,45,0.00,,,-99.99,,2013-05-25 08:32:00,
2013-05-25 01:42:00,70.0,48.0,29.72,North,0,0.0,-999.0,45,0.00,,,-99.99,,2013-05-25 08:42:00,
2013-05-25 01:51:00,70.0,48.0,29.72,North,0,0.0,-999.0,45,0.00,,,-99.99,,2013-05-25 08:51:00,
2013-05-25 02:21:00,68.0,48.0,29.71,North,0,0.0,-999.0,49,0.00,,,-99.99,,2013-05-25 09:21:00,
2013-05-25 02:33:00,68.0,48.0,29.71,North,0,0.0,-999.0,49,0.00,,,-99.99,,2013-05-25 09:33:00,
2013-05-25 02:42:00,68.0,48.0,29.71,North,0,0.0,-999.0,49,0.00,,,-99.99,,2013-05-25 09:42:00,
2013-05-25 02:52:00,68.0,48.0,29.71,North,0,0.0,-999.0,49,0.00,,,-99.99,,2013-05-25 09:52:00,
2013-05-25 03:22:00,66.0,48.0,29.71,North,0,0.0,-999.0,52,0.00,,,-99.99,,2013-05-25 10:22:00,
2013-05-25 03:32:00,66.0,48.0,29.71,North,0,0.0,-999.0,52,0.00,,,-99.99,,2013-05-25 10:32:00,
2013-05-25 03:42:00,66.0,48.0,29.71,North,0,0.0,-999.0,52,0.00,,,-99.99,,2013-05-25 10:42:00,
2013-05-25 03:52:00,66.0,48.0,29.71,North,0,0.0,-999.0,52,0.00,,,-99.99,,2013-05-25 10:52:00,
2013-05-25 04:21:00,64.0,47.0,29.72,North,0,0.0,-999.0,53,0.00,,,-99.99,,2013-05-25 11:21:00,
2013-05-25 04:32:00,64.0,47.0,29.72,North,0,0.0,-999.0,53,0.00,,,-99.99,,2013-05-25 11:32:00,
2013-05-25 04:41:00,64.0,47.0,29.72,North,0,0.0,-999.0,53,0.00,,,-99.99,,2013-05-25 11:41:00,
2013-05-25 04:52:00,64.0,47.0,29.72,North,0,0.0,-999.0,53,0.00,,,-99.99,,2013-05-25 11:52:00,
2013-05-25 05:22:00,63.0,48.0,29.73,North,0,0.0,-999.0,59,0.00,,,-99.99,,2013-05-25 12:22:00,
2013-05-25 05:32:00,63.0,48.0,29.73,North,0,0.0,-999.0,59,0.00,,,-99.99,,2013-05-25 12:32:00,
2013-05-25 05:42:00,63.0,48.0,29.73,North,0,0.0,-999.0,59,0.00,,,-99.99,,2013-05-25 12:42:00,
2013-05-25 05:52:00,63.0,48.0,29.73,North,0,0.0,-999.0,59,0.00,,,-99.99,,2013-05-25 12:52:00,
2013-05-25 06:21:00,61.0,48.0,29.74,North,0,0.0,-999.0,63,0.00,,,-99.99,,2013-05-25 13:21:00,
2013-05-25 06:32:00,61.0,48.0,29.74,North,0,0.0,-999.0,63,0.00,,,-99.99,,2013-05-25 13:32:00,
2013-05-25 06:42:00,61.0,48.0,29.74,North,0,0.0,-999.0,63,0.00,,,-99.99,,2013-05-25 13:42:00,
2013-05-25 06:52:00,61.0,48.0,29.74,North,0,0.0,-999.0,63,0.00,,,-99.99,,2013-05-25 13:52:00,
2013-05-25 07:22:00,65.0,52.0,29.76,North,0,0.0,-999.0,62,0.00,,,-99.99,,2013-05-25 14:22:00,
2013-05-25 07:32:00,65.0,52.0,29.76,North,0,0.0,-999.0,62,0.00,,,-99.99,,2013-05-25 14:32:00,
2013-05-25 07:42:00,65.0,52.0,29.76,North,0,0.0,-999.0,62,0.00,,,-99.99,,2013-05-25 14:42:00,
2013-05-25 07:52:00,65.0,52.0,29.76,North,0,0.0,-999.0,62,0.00,,,-99.99,,2013-05-25 14:52:00,
2013-05-25 08:22:00,72.0,46.0,29.78,North,360,3.0,-999.0,40,0.00,,,-99.99,,2013-05-25 15:22:00,
2013-05-25 08:33:00,72.0,46.0,29.78,North,360,3.0,-999.0,40,0.00,,,-99.99,,2013-05-25 15:33:00,
2013-05-25 08:43:00,72.0,46.0,29.78,North,360,3.0,-999.0,40,0.00,,,-99.99,,2013-05-25 15:43:00,
2013-05-25 08:53:00,72.0,46.0,29.78,North,360,3.0,-999.0,40,0.00,,,-99.99,,2013-05-25 15:53:00,
2013-05-25 09:23:00,77.0,46.0,29.79,North,0,0.0,-999.0,33,0.00,,,-99.99,,2013-05-25 16:23:00,
2013-05-25 09:32:00,77.0,46.0,29.79,North,0,0.0,-999.0,33,0.00,,,-99.99,,2013-05-25 16:32:00,
2013-05-25 09:42:00,77.0,46.0,29.79,North,0,0.0,-999.0,33,0.00,,,-99.99,,2013-05-25 16:42:00,
2013-05-25 09:52:00,77.0,46.0,29.79,North,0,0.0,-999.0,33,0.00,,,-99.99,,2013-05-25 16:52:00,
2013-05-25 10:22:00,82.0,43.0,29.79,North,0,0.0,-999.0,25,0.00,,,-99.99,,2013-05-25 17:22:00,
2013-05-25 10:32:00,82.0,43.0,29.79,North,0,0.0,-999.0,25,0.00,,,-99.99,,2013-05-25 17:32:00,
2013-05-25 10:42:00,82.0,43.0,29.79,North,0,0.0,-999.0,25,0.00,,,-99.99,,2013-05-25 17:42:00,
2013-05-25 10:52:00,82.0,43.0,29.79,North,0,0.0,-999.0,25,0.00,,,-99.99,,2013-05-25 17:52:00,
2013-05-25 11:21:00,85.0,35.0,29.79,North,0,0.0,-999.0,17,0.00,,,-99.99,,2013-05-25 18:21:00,
2013-05-25 11:32:00,85.0,35.0,29.79,North,0,0.0,-999.0,17,0.00,,,-99.99,,2013-05-25 18:32:00,
2013-05-25 11:42:00,85.0,35.0,29.79,North,0,0.0,-999.0,17,0.00,,,-99.99,,2013-05-25 18:42:00,
2013-05-25 11:52:00,85.0,35.0,29.79,North,0,0.0,-999.0,17,0.00,,,-99.99,,2013-05-25 18:52:00,
2013-05-25 12:21:00,87.0,35.0,29.79,North,0,0.0,-999.0,16,0.00,,,-99.99,,2013-05-25 19:21:00,
2013-05-25 12:32:00,87.0,35.0,29.79,North,0,0.0,-999.0,16,0.00,,,-99.99,,2013-05-25 19:32:00,
2013-05-25 12:42:00,87.0,35.0,29.79,North,0,0.0,-999.0,16,0.00,,,-99.99,,2013-05-25 19:42:00,
2013-05-25 12:52:00,87.0,35.0,29.79,North,0,0.0,-999.0,16,0.00,,,-99.99,,2013-05-25 19:52:00,
2013-05-25 13:21:00,91.0,31.0,29.77,North,0,0.0,-999.0,12,0.00,,,-99.99,,2013-05-25 20:21:00,
2013-05-25 13:32:00,91.0,31.0,29.77,North,0,0.0,-999.0,12,0.00,,,-99.99,,2013-05-25 20:32:00,
2013-05-25 13:42:00,91.0,31.0,29.77,North,0,0.0,-999.0,12,0.00,,,-99.99,,2013-05-25 20:42:00,
2013-05-25 13:52:00,91.0,31.0,29.77,North,0,0.0,-999.0,12,0.00,,,-99.99,,2013-05-25 20:52:00,
2013-05-25 14:21:00,93.0,31.0,29.76,North,0,0.0,-999.0,11,0.00,,,-99.99,,2013-05-25 21:21:00,
2013-05-25 14:33:00,93.0,31.0,29.76,North,0,0.0,-999.0,11,0.00,,,-99.99,,2013-05-25 21:33:00,
2013-05-25 14:43:00,93.0,31.0,29.76,North,0,0.0,-999.0,11,0.00,,,-99.99,,2013-05-25 21:43:00,
2013-05-25 14:53:00,93.0,31.0,29.76,North,0,0.0,-999.0,11,0.00,,,-99.99,,2013-05-25 21:53:00,
2013-05-25 15:22:00,92.0,32.0,29.74,NE,40,2.0,-999.0,12,0.00,,,-99.99,,2013-05-25 22:22:00,
2013-05-25 15:32:00,92.0,32.0,29.74,NE,40,2.0,-999.0,12,0.00,,,-99.99,,2013-05-25 22:32:00,
2013-05-25 15:42:00,92.0,32.0,29.74,NE,40,2.0,-999.0,12,0.00,,,-99.99,,2013-05-25 22:42:00,
2013-05-25 15:52:00,92.0,32.0,29.74,NE,40,2.0,-999.0,12,0.00,,,-99.99,,2013-05-25 22:52:00,
2013-05-25 16:22:00,93.0,35.0,29.72,North,0,0.0,-999.0,13,0.00,,,-99.99,,2013-05-25 23:22:00,
2013-05-25 16:32:00,93.0,35.0,29.72,North,0,0.0,-999.0,13,0.00,,,-99.99,,2013-05-25 23:32:00,
2013-05-25 16:42:00,93.0,35.0,29.72,North,0,0.0,-999.0,13,0.00,,,-99.99,,2013-05-25 23:42:00,
2013-05-25 16:52:00,93.0,35.0,29.72,North,0,0.0,-999.0,13,0.00,,,-99.99,,2013-05-25 23:52:00,
2013-05-25 17:21:00,94.0,31.0,29.70,North,0,0.0,-999.0,11,0.00,,,-99.99,,2013-05-26 00:21:00,
2013-05-25 17:31:00,94.0,31.0,29.70,North,0,0.0,-999.0,11,0.00,,,-99.99,,2013-05-26 00:31:00,
2013-05-25 17:42:00,94.0,31.0,29.70,North,0,0.0,-999.0,11,0.00,,,-99.99,,2013-05-26 00:42:00,
2013-05-25 17:52:00,94.0,31.0,29.70,North,0,0.0,-999.0,11,0.00,,,-99.99,,2013-05-26 00:52:00,
2013-05-25 18:21:00,92.0,32.0,29.69,North,360,6.0,-999.0,12,0.00,,,-99.99,,2013-05-26 01:21:00,
2013-05-25 18:32:00,92.0,32.0,29.69,North,360,6.0,-999.0,12,0.00,,,-99.99,,2013-05-26 01:32:00,
2013-05-25 18:42:00,92.0,32.0,29.69,North,360,6.0,-999.0,12,0.00,,,-99.99,,2013-05-26 01:42:00,
2013-05-25 18:52:00,92.0,32.0,29.69,North,360,6.0,-999.0,12,0.00,,,-99.99,,2013-05-26 01:52:00,
2013-05-25 19:21:00,90.0,38.0,29.69,NNE,30,8.0,-999.0,16,0.00,,,-99.99,,2013-05-26 02:21:00,
2013-05-25 19:32:00,90.0,38.0,29.69,NNE,30,8.0,-999.0,16,0.00,,,-99.99,,2013-05-26 02:32:00,
2013-05-25 19:41:00,90.0,38.0,29.69,NNE,30,8.0,-999.0,16,0.00,,,-99.99,,2013-05-26 02:41:00,
2013-05-25 19:52:00,90.0,38.0,29.69,NNE,30,8.0,-999.0,16,0.00,,,-99.99,,2013-05-26 02:52:00,
2013-05-25 20:21:00,85.0,42.0,29.69,North,0,0.0,-999.0,22,0.00,,,-99.99,,2013-05-26 03:21:00,
2013-05-25 20:33:00,85.0,42.0,29.69,North,0,0.0,-999.0,22,0.00,,,-99.99,,2013-05-26 03:33:00,
2013-05-25 20:42:00,85.0,42.0,29.69,North,0,0.0,-999.0,22,0.00,,,-99.99,,2013-05-26 03:42:00,
2013-05-25 20:53:00,85.0,42.0,29.69,North,0,0.0,-999.0,22,0.00,,,-99.99,,2013-05-26 03:53:00,
2013-05-25 21:23:00,82.0,44.0,29.71,North,0,0.0,-999.0,26,0.00,,,-99.99,,2013-05-26 04:23:00,
2013-05-25 21:33:00,82.0,44.0,29.71,North,0,0.0,-999.0,26,0.00,,,-99.99,,2013-05-26 04:33:00,
2013-05-25 21:42:00,82.0,44.0,29.71,North,0,0.0,-999.0,26,0.00,,,-99.99,,2013-05-26 04:42:00,
2013-05-25 21:52:00,82.0,44.0,29.71,North,0,0.0,-999.0,26,0.00,,,-99.99,,2013-05-26 04:52:00,
2013-05-25 22:22:00,77.0,46.0,29.73,North,0,0.0,-999.0,33,0.00,,,-99.99,,2013-05-26 05:22:00,
2013-05-25 22:32:00,77.0,46.0,29.73,North,0,0.0,-999.0,33,0.00,,,-99.99,,2013-05-26 05:32:00,
2013-05-25 22:42:00,77.0,46.0,29.73,North,0,0.0,-999.0,33,0.00,,,-99.99,,2013-05-26 05:42:00,
2013-05-25 22:52:00,77.0,46.0,29.73,North,0,0.0,-999.0,33,0.00,,,-99.99,,2013-05-26 05:52:00,
2013-05-25 23:21:00,74.0,47.0,29.73,North,0,0.0,-999.0,38,0.00,,,-99.99,,2013-05-26 06:21:00,
2013-05-25 23:32:00,74.0,47.0,29.73,North,0,0.0,-999.0,38,0.00,,,-99.99,,2013-05-26 06:32:00,
2013-05-25 23:41:00,74.0,47.0,29.73,North,0,0.0,-999.0,38,0.00,,,-99.99,,2013-05-26 06:41:00,
2013-05-25 23:51:00,74.0,47.0,29.73,North,0,0.0,-999.0,38,0.00,,,-99.99,,2013-05-26 06:51:00,